When you browse on this site, cookies collect data to enhance your experience and personalize the content and advertising you see.
Visit our Privacy Policy to learn more. By continuing to use the site, you agree to this use of cookies and data.
  • en France
  • Liste des pays
  • À 7 jours
  • Température de l'eau
  • Carte météo
  • Widgets météo
  • user-avatar
    Se connecter

    Météo par heure à Durrёs

    Ce jour, 22 Août, Jeudi

    Heure Température Précipitation Vent Pression Humidité
    00:00 +26°C° 0 mm 1 m/s 761 mmHg 62%
    01:00 +25°C° 0 mm 1 m/s 761 mmHg 64%
    02:00 +25°C° 0 mm 1 m/s 761 mmHg 61%
    03:00 +25°C° 0 mm 1 m/s 761 mmHg 57%
    04:00 +25°C° 0 mm 1 m/s 761 mmHg 54%
    05:00 +27°C° 0 mm 1 m/s 761 mmHg 47%
    06:00 +28°C° 0 mm 1 m/s 762 mmHg 40%
    07:00 +31°C° 0 mm 2 m/s 762 mmHg 33%
    08:00 +34°C° 0 mm 2 m/s 762 mmHg 29%
    09:00 +36°C° 0 mm 2 m/s 762 mmHg 25%
    10:00 +39°C° 0 mm 1 m/s 762 mmHg 21%
    11:00 +39°C° 0 mm 2 m/s 761 mmHg 22%
    12:00 +39°C° 0 mm 3 m/s 761 mmHg 22%
    13:00 +40°C° 0 mm 4 m/s 761 mmHg 23%
    14:00 +39°C° 0 mm 5 m/s 761 mmHg 25%
    15:00 +39°C° 0 mm 5 m/s 761 mmHg 28%
    16:00 +37°C° 0 mm 5 m/s 760 mmHg 30%
    17:00 +34°C° 0 mm 4 m/s 760 mmHg 37%
    18:00 +31°C° 0 mm 2 m/s 761 mmHg 43%
    19:00 +28°C° 0 mm 1 m/s 761 mmHg 50%
    20:00 +28°C° 0 mm 1 m/s 761 mmHg 50%
    21:00 +27°C° 0 mm 1 m/s 761 mmHg 51%
    22:00 +27°C° 0 mm 1 m/s 762 mmHg 51%
    23:00 +26°C° 0 mm 1 m/s 762 mmHg 51%

    Demain, 23 Août, Vendredi

    Heure Température Précipitation Vent Pression Humidité
    00:00 +26°C° 0 mm 1 m/s 762 mmHg 51%
    01:00 +26°C° 0 mm 1 m/s 762 mmHg 50%
    02:00 +26°C° 0 mm 1 m/s 762 mmHg 49%
    03:00 +26°C° 0 mm 1 m/s 762 mmHg 47%
    04:00 +25°C° 0 mm 1 m/s 761 mmHg 45%
    05:00 +27°C° 0 mm 1 m/s 761 mmHg 41%
    06:00 +29°C° 0 mm 1 m/s 762 mmHg 36%
    07:00 +31°C° 0 mm 1 m/s 762 mmHg 31%
    08:00 +34°C° 0 mm 1 m/s 762 mmHg 28%
    09:00 +36°C° 0 mm 1 m/s 762 mmHg 24%
    10:00 +40°C° 0 mm 2 m/s 762 mmHg 20%
    11:00 +39°C° 0 mm 3 m/s 762 mmHg 22%
    12:00 +40°C° 0 mm 4 m/s 761 mmHg 23%
    13:00 +39°C° 0 mm 5 m/s 761 mmHg 25%
    14:00 +39°C° 0 mm 5 m/s 761 mmHg 25%
    15:00 +38°C° 0 mm 4 m/s 760 mmHg 25%
    16:00 +38°C° 0 mm 4 m/s 760 mmHg 24%
    17:00 +36°C° 0 mm 4 m/s 760 mmHg 32%
    18:00 +33°C° 0 mm 4 m/s 760 mmHg 39%
    19:00 +29°C° 0 mm 3 m/s 760 mmHg 46%
    20:00 +29°C° 0 mm 3 m/s 761 mmHg 47%
    21:00 +29°C° 0 mm 4 m/s 761 mmHg 47%
    22:00 +29°C° 0 mm 4 m/s 761 mmHg 48%
    23:00 +28°C° 0 mm 4 m/s 761 mmHg 53%

    Après-demain, 24 Août, Samedi

    Heure Température Précipitation Vent Pression Humidité
    00:00 +28°C° 0 mm 5 m/s 761 mmHg 57%
    01:00 +27°C° 0 mm 5 m/s 761 mmHg 62%
    02:00 +27°C° 0 mm 4 m/s 761 mmHg 59%
    03:00 +27°C° 0 mm 4 m/s 761 mmHg 56%
    04:00 +26°C° 0 mm 3 m/s 761 mmHg 53%
    05:00 +28°C° 0 mm 2 m/s 761 mmHg 46%
    06:00 +30°C° 0 mm 2 m/s 761 mmHg 39%
    07:00 +32°C° 0 mm 1 m/s 761 mmHg 32%
    08:00 +35°C° 0 mm 2 m/s 761 mmHg 28%
    09:00 +38°C° 0 mm 2 m/s 761 mmHg 24%
    10:00 +40°C° 0 mm 2 m/s 761 mmHg 21%
    11:00 +39°C° 0.1 mm 3 m/s 761 mmHg 23%
    12:00 +38°C° 0.1 mm 4 m/s 760 mmHg 26%
    13:00 +36°C° 0.1 mm 4 m/s 760 mmHg 29%
    14:00 +37°C° 0 mm 4 m/s 760 mmHg 28%
    15:00 +37°C° 0 mm 4 m/s 760 mmHg 28%
    16:00 +37°C° 0 mm 4 m/s 759 mmHg 27%
    17:00 +35°C° 0 mm 4 m/s 759 mmHg 33%
    18:00 +33°C° 0 mm 5 m/s 760 mmHg 38%
    19:00 +30°C° 0 mm 5 m/s 760 mmHg 44%
    20:00 +30°C° 0 mm 5 m/s 760 mmHg 47%
    21:00 +29°C° 0 mm 6 m/s 760 mmHg 51%
    22:00 +29°C° 0 mm 6 m/s 761 mmHg 54%
    23:00 +28°C° 0 mm 5 m/s 760 mmHg 57%

    25 Août, Dimanche

    Heure Température Précipitation Vent Pression Humidité
    00:00 +28°C° 0 mm 4 m/s 760 mmHg 59%
    01:00 +28°C° 0 mm 4 m/s 760 mmHg 62%
    02:00 +28°C° 0 mm 3 m/s 760 mmHg 57%
    03:00 +27°C° 0 mm 2 m/s 760 mmHg 53%
    04:00 +27°C° 0 mm 1 m/s 760 mmHg 49%
    05:00 +28°C° 0 mm 1 m/s 760 mmHg 44%
    06:00 +30°C° 0 mm 1 m/s 760 mmHg 40%
    07:00 +31°C° 0 mm 1 m/s 760 mmHg 35%
    08:00 +33°C° 0 mm 1 m/s 760 mmHg 31%
    09:00 +37°C° 0 mm 2 m/s 760 mmHg 26%
    10:00 +39°C° 0 mm 2 m/s 760 mmHg 22%
    11:00 +39°C° 0 mm 3 m/s 760 mmHg 24%
    12:00 +40°C° 0 mm 4 m/s 759 mmHg 25%
    13:00 +39°C° 0 mm 6 m/s 759 mmHg 27%
    14:00 +39°C° 0 mm 6 m/s 759 mmHg 29%
    15:00 +38°C° 0 mm 6 m/s 759 mmHg 30%
    16:00 +36°C° 0 mm 6 m/s 759 mmHg 32%
    17:00 +34°C° 0.1 mm 5 m/s 759 mmHg 40%
    18:00 +31°C° 0.1 mm 3 m/s 759 mmHg 47%
    19:00 +28°C° 0.1 mm 2 m/s 759 mmHg 54%
    20:00 +28°C° 0 mm 2 m/s 760 mmHg 55%
    21:00 +27°C° 0 mm 2 m/s 760 mmHg 56%
    22:00 +27°C° 0 mm 2 m/s 760 mmHg 57%
    23:00 +26°C° 0 mm 2 m/s 760 mmHg 58%

    26 Août, Lundi

    Heure Température Précipitation Vent Pression Humidité
    00:00 +26°C° 0 mm 3 m/s 759 mmHg 58%
    01:00 +26°C° 0 mm 3 m/s 759 mmHg 58%
    02:00 +26°C° 0 mm 3 m/s 759 mmHg 57%
    03:00 +26°C° 0 mm 3 m/s 759 mmHg 57%
    04:00 +26°C° 0 mm 4 m/s 759 mmHg 56%
    05:00 +27°C° 0 mm 3 m/s 759 mmHg 52%
    06:00 +29°C° 0 mm 3 m/s 759 mmHg 47%
    07:00 +30°C° 0 mm 3 m/s 759 mmHg 43%
    08:00 +33°C° 0 mm 3 m/s 759 mmHg 37%
    09:00 +35°C° 0 mm 2 m/s 760 mmHg 31%
    10:00 +38°C° 0 mm 2 m/s 760 mmHg 25%
    11:00 +38°C° 0 mm 3 m/s 759 mmHg 25%
    12:00 +38°C° 0 mm 4 m/s 759 mmHg 25%
    13:00 +38°C° 0 mm 4 m/s 759 mmHg 26%
    14:00 +39°C° 0 mm 5 m/s 759 mmHg 28%
    15:00 +37°C° 0 mm 5 m/s 759 mmHg 30%
    16:00 +36°C° 0 mm 5 m/s 759 mmHg 32%
    17:00 +34°C° 0 mm 5 m/s 759 mmHg 38%
    18:00 +32°C° 0 mm 5 m/s 759 mmHg 44%
    19:00 +29°C° 0 mm 5 m/s 759 mmHg 49%
    20:00 +29°C° 0 mm 4 m/s 759 mmHg 49%
    21:00 +28°C° 0 mm 4 m/s 760 mmHg 50%
    22:00 +28°C° 0 mm 3 m/s 760 mmHg 50%
    23:00 +28°C° 0 mm 3 m/s 760 mmHg 48%

    27 Août, Mardi

    Heure Température Précipitation Vent Pression Humidité
    00:00 +28°C° 0 mm 2 m/s 759 mmHg 46%
    01:00 +28°C° 0 mm 2 m/s 759 mmHg 44%
    02:00 +28°C° 0 mm 2 m/s 759 mmHg 44%
    03:00 +28°C° 0 mm 2 m/s 759 mmHg 45%
    04:00 +27°C° 0 mm 3 m/s 759 mmHg 45%
    05:00 +29°C° 0 mm 2 m/s 759 mmHg 41%
    06:00 +30°C° 0 mm 2 m/s 759 mmHg 37%
    07:00 +31°C° 0 mm 2 m/s 759 mmHg 34%
    08:00 +34°C° 0 mm 2 m/s 759 mmHg 30%
    09:00 +36°C° 0 mm 2 m/s 759 mmHg 26%
    10:00 +38°C° 0 mm 2 m/s 759 mmHg 22%
    11:00 +39°C° 0 mm 3 m/s 759 mmHg 22%
    12:00 +40°C° 0 mm 4 m/s 759 mmHg 22%
    13:00 +40°C° 0 mm 5 m/s 759 mmHg 22%
    14:00 +39°C° 0 mm 5 m/s 759 mmHg 24%
    15:00 +39°C° 0 mm 5 m/s 759 mmHg 26%
    16:00 +37°C° 0 mm 5 m/s 759 mmHg 28%
    17:00 +34°C° 0 mm 4 m/s 759 mmHg 35%
    18:00 +31°C° 0 mm 3 m/s 759 mmHg 41%
    19:00 +29°C° 0 mm 3 m/s 759 mmHg 47%
    20:00 +28°C° 0 mm 3 m/s 759 mmHg 47%
    21:00 +28°C° 0 mm 3 m/s 759 mmHg 46%
    22:00 +27°C° 0 mm 3 m/s 759 mmHg 46%
    23:00 +27°C° 0 mm 3 m/s 759 mmHg 45%
    Voir plus